Schneifelwetter: Wetterstation Hallschlag, 537 m . NN
Wetterdaten: Sonntag, 22.06.2008
Datum Zeit Temp. A. Temp. 2 Feuchte A. Luftdruck Regen Wind Richtung Richtung Sonnenschein Helligkeit T Regen Taupunkt Windchill
22.06.2008 00:01 13,8 C 12,0 C 85 % 1018 hPa 0,0 l/m 0,0 km/h (0 Bft) S-SW 205 0 min 0 lux 0,00 min 11,3 C 13,8 C
22.06.2008 00:16 13,5 C 11,8 C 85 % 1018 hPa 0,0 l/m 0,0 km/h (0 Bft) S-SW 205 0 min 0 lux 0,00 min 11,0 C 13,5 C
22.06.2008 00:31 13,2 C 11,8 C 86 % 1018 hPa 0,0 l/m 0,0 km/h (0 Bft) S-SW 205 0 min 0 lux 0,00 min 10,9 C 13,2 C
22.06.2008 00:46 13,0 C 11,6 C 86 % 1017 hPa 0,0 l/m 0,0 km/h (0 Bft) S-SW 205 0 min 0 lux 0,00 min 10,7 C 13,0 C
22.06.2008 01:01 12,8 C 11,4 C 87 % 1017 hPa 0,0 l/m 0,0 km/h (0 Bft) S-SW 205 0 min 0 lux 0,00 min 10,7 C 12,8 C
22.06.2008 01:16 12,7 C 11,4 C 88 % 1017 hPa 0,0 l/m 0,0 km/h (0 Bft) S-SW 210 0 min 0 lux 0,00 min 10,8 C 12,7 C
22.06.2008 01:31 12,5 C 11,0 C 88 % 1017 hPa 0,0 l/m 0,0 km/h (0 Bft) S-SW 205 0 min 0 lux 0,00 min 10,6 C 12,5 C
22.06.2008 01:46 12,4 C 11,1 C 89 % 1017 hPa 0,0 l/m 0,0 km/h (0 Bft) S-SW 205 0 min 0 lux 0,00 min 10,6 C 12,4 C
22.06.2008 02:01 12,3 C 11,0 C 89 % 1017 hPa 0,0 l/m 0,0 km/h (0 Bft) S22.5 180 0 min 0 lux 0,00 min 10,5 C 12,3 C
22.06.2008 02:16 12,2 C 11,1 C 90 % 1017 hPa 0,0 l/m 0,0 km/h (0 Bft) S-SO 160 0 min 0 lux 0,00 min 10,6 C 12,2 C
22.06.2008 02:31 12,3 C 12,1 C 90 % 1017 hPa 0,0 l/m 17,7 km/h (3 Bft) S-SW45 210 0 min 0 lux 0,00 min 10,7 C 7,0 C
22.06.2008 02:46 14,3 C 13,5 C 93 % 1016 hPa 0,0 l/m 20,1 km/h (4 Bft) S-SW22.5 205 0 min 0 lux 0,00 min 13,2 C 8,8 C
22.06.2008 03:01 15,6 C 14,3 C 88 % 1016 hPa 0,0 l/m 15,6 km/h (3 Bft) SW45 215 0 min 0 lux 0,00 min 13,6 C 11,7 C
22.06.2008 03:16 16,2 C 15,2 C 85 % 1016 hPa 0,0 l/m 15,8 km/h (3 Bft) SW22.5 225 0 min 0 lux 0,00 min 13,7 C 12,4 C
22.06.2008 03:31 16,6 C 15,6 C 82 % 1016 hPa 0,0 l/m 15,1 km/h (3 Bft) SW45 220 0 min 0 lux 0,00 min 13,5 C 13,1 C
22.06.2008 03:46 16,6 C 16,1 C 81 % 1016 hPa 0,0 l/m 16,0 km/h (3 Bft) SW45 220 0 min 0 lux 0,00 min 13,3 C 12,8 C
22.06.2008 04:01 16,4 C 16,0 C 81 % 1016 hPa 0,0 l/m 11,8 km/h (2 Bft) SW45 225 0 min 0 lux 0,00 min 13,1 C 14,0 C
22.06.2008 04:16 15,7 C 15,3 C 81 % 1016 hPa 0,0 l/m 9,8 km/h (2 Bft) W-SW22.5 245 0 min 0 lux 0,00 min 12,4 C 14,0 C
22.06.2008 04:31 15,0 C 14,7 C 83 % 1016 hPa 0,0 l/m 10,4 km/h (2 Bft) W-SW22.5 250 0 min 0 lux 0,00 min 12,1 C 12,9 C
22.06.2008 04:46 14,6 C 14,2 C 84 % 1016 hPa 0,0 l/m 12,1 km/h (2 Bft) W-SW22.5 250 0 min 0 lux 0,00 min 11,9 C 11,8 C
22.06.2008 05:01 14,4 C 13,9 C 85 % 1016 hPa 0,0 l/m 9,9 km/h (2 Bft) W-SW 250 0 min 56 lux 0,00 min 11,9 C 12,5 C
22.06.2008 05:16 14,4 C 13,9 C 86 % 1015 hPa 0,0 l/m 11,0 km/h (2 Bft) SW22.5 235 0 min 320 lux 0,00 min 12,1 C 12,0 C
22.06.2008 05:31 14,7 C 14,2 C 86 % 1015 hPa 0,0 l/m 13,5 km/h (3 Bft) SW22.5 230 0 min 865 lux 0,00 min 12,4 C 11,4 C
22.06.2008 05:46 14,8 C 14,4 C 86 % 1015 hPa 0,0 l/m 12,5 km/h (3 Bft) SW22.5 230 0 min 3,66 klux 0,00 min 12,5 C 11,8 C
22.06.2008 06:01 14,5 C 14,2 C 84 % 1015 hPa 0,0 l/m 10,5 km/h (2 Bft) SW22.5 215 0 min 7,60 klux 0,00 min 11,8 C 12,3 C
22.06.2008 06:16 14,8 C 14,5 C 86 % 1015 hPa 0,0 l/m 12,2 km/h (2 Bft) SW45 215 0 min 12,0 klux 0,00 min 12,5 C 12,0 C
22.06.2008 06:31 16,5 C 15,1 C 84 % 1015 hPa 0,0 l/m 13,3 km/h (3 Bft) SW22.5 230 0 min 16,3 klux 0,00 min 13,8 C 13,5 C
22.06.2008 06:46 18,6 C 15,5 C 78 % 1015 hPa 0,0 l/m 7,6 km/h (2 Bft) S-SW22.5 200 0 min 22,4 klux 0,00 min 14,7 C 18,1 C
22.06.2008 07:01 20,5 C 16,5 C 74 % 1015 hPa 0,0 l/m 10,8 km/h (2 Bft) S22.5 180 0 min 24,5 klux 0,00 min 15,7 C 18,9 C
22.06.2008 07:16 21,8 C 17,4 C 70 % 1015 hPa 0,0 l/m 12,7 km/h (3 Bft) S22.5 180 0 min 27,6 klux 0,00 min 16,1 C 19,9 C
22.06.2008 07:32 22,6 C 18,9 C 67 % 1015 hPa 0,0 l/m 20,5 km/h (4 Bft) S45 185 0 min 32,9 klux 0,00 min 16,2 C 19,5 C
22.06.2008 07:47 22,5 C 19,4 C 67 % 1015 hPa 0,0 l/m 20,0 km/h (4 Bft) S-SW22.5 200 0 min 36,4 klux 0,00 min 16,1 C 19,4 C
22.06.2008 08:02 22,9 C 20,2 C 66 % 1015 hPa 0,0 l/m 19,3 km/h (3 Bft) SW45 215 0 min 41,7 klux 0,00 min 16,2 C 20,1 C
22.06.2008 08:17 23,0 C 20,9 C 67 % 1015 hPa 0,0 l/m 25,8 km/h (4 Bft) S-SW45 200 0 min 44,6 klux 0,00 min 16,5 C 19,4 C
22.06.2008 08:32 23,4 C 21,5 C 67 % 1015 hPa 0,0 l/m 21,8 km/h (4 Bft) SW45 215 0 min 51,1 klux 0,00 min 16,9 C 20,4 C
22.06.2008 08:47 23,5 C 22,0 C 67 % 1015 hPa 0,0 l/m 15,4 km/h (3 Bft) S45 185 0 min 45,3 klux 0,00 min 17,0 C 21,4 C
22.06.2008 09:02 23,4 C 22,3 C 67 % 1015 hPa 0,0 l/m 17,5 km/h (3 Bft) S22.5 190 0 min 43,7 klux 0,00 min 16,9 C 21,0 C
22.06.2008 09:17 23,3 C 22,5 C 67 % 1015 hPa 0,0 l/m 24,1 km/h (4 Bft) SW45 235 15 min 60,2 klux 0,00 min 16,8 C 20,0 C
22.06.2008 09:32 23,5 C 22,7 C 67 % 1015 hPa 0,0 l/m 23,5 km/h (4 Bft) SW45 230 0 min 58,8 klux 0,00 min 17,0 C 20,3 C
22.06.2008 09:47 23,6 C 22,8 C 67 % 1015 hPa 0,0 l/m 28,3 km/h (4 Bft) W-SW45 240 15 min 63,9 klux 0,00 min 17,1 C 19,9 C
22.06.2008 10:01 23,3 C 22,8 C 68 % 1015 hPa 0,0 l/m 18,8 km/h (3 Bft) SW45 230 14 min 60,4 klux 0,00 min 17,1 C 20,6 C
22.06.2008 10:16 24,1 C 23,2 C 67 % 1015 hPa 0,0 l/m 19,2 km/h (3 Bft) S-SW45 210 15 min 62,4 klux 0,00 min 17,6 C 21,6 C
22.06.2008 10:31 25,6 C 24,2 C 66 % 1015 hPa 0,0 l/m 24,4 km/h (4 Bft) W-SW45 240 15 min 88,7 klux 0,00 min 18,8 C 23,0 C
22.06.2008 10:46 26,3 C 25,2 C 60 % 1015 hPa 0,0 l/m 34,9 km/h (5 Bft) SW67.5 235 15 min 100 klux 0,00 min 17,9 C 23,3 C
22.06.2008 10:46 14,3 C 12,9 C 60 % 1015 hPa 0,0 l/m 34,9 km/h (5 Bft) SW67.5 235 0 min 100 klux 0,00 min 6,6 C 5,9 C
22.06.2008 11:01 25,0 C 25,0 C 63 % 1015 hPa 0,0 l/m 28,3 km/h (4 Bft) SW67.5 215 0 min 49,5 klux 0,00 min 17,5 C 21,9 C
22.06.2008 11:16 25,4 C 25,6 C 64 % 1015 hPa 0,0 l/m 27,5 km/h (4 Bft) SW45 220 15 min 70,7 klux 0,00 min 18,1 C 22,5 C
22.06.2008 11:31 25,7 C 25,7 C 62 % 1015 hPa 0,0 l/m 31,1 km/h (5 Bft) SW67.5 230 15 min 66,4 klux 0,00 min 17,9 C 22,7 C
22.06.2008 11:47 24,7 C 24,7 C 65 % 1015 hPa 0,0 l/m 33,1 km/h (5 Bft) W-SW45 240 0 min 45,6 klux 0,00 min 17,7 C 21,1 C
22.06.2008 12:02 23,7 C 23,8 C 66 % 1015 hPa 0,0 l/m 34,5 km/h (5 Bft) W-SW22.5 240 0 min 24,6 klux 0,00 min 17,0 C 19,6 C
22.06.2008 12:17 23,7 C 23,8 C 69 % 1015 hPa 0,0 l/m 30,8 km/h (5 Bft) W-SW45 250 0 min 52,8 klux 0,00 min 17,7 C 19,9 C
22.06.2008 12:32 23,6 C 23,6 C 68 % 1015 hPa 0,0 l/m 26,5 km/h (4 Bft) SW45 230 0 min 37,0 klux 0,00 min 17,3 C 20,1 C
22.06.2008 12:47 23,3 C 23,7 C 70 % 1015 hPa 0,0 l/m 18,0 km/h (3 Bft) SW45 220 0 min 38,6 klux 0,00 min 17,5 C 20,8 C
22.06.2008 13:02 23,6 C 24,0 C 70 % 1015 hPa 0,0 l/m 27,5 km/h (4 Bft) SW45 230 0 min 44,9 klux 0,00 min 17,8 C 20,0 C
22.06.2008 13:17 24,2 C 24,7 C 68 % 1015 hPa 0,0 l/m 24,1 km/h (4 Bft) W-SW45 245 15 min 63,2 klux 0,00 min 17,9 C 21,2 C
22.06.2008 13:32 24,5 C 24,8 C 65 % 1015 hPa 0,0 l/m 26,6 km/h (4 Bft) SW45 225 0 min 56,9 klux 0,00 min 17,5 C 21,3 C
22.06.2008 13:47 24,4 C 25,1 C 64 % 1015 hPa 0,0 l/m 32,7 km/h (5 Bft) SW45 225 15 min 65,7 klux 0,00 min 17,1 C 20,7 C
22.06.2008 14:02 24,7 C 25,5 C 64 % 1015 hPa 0,0 l/m 30,7 km/h (5 Bft) SW45 235 15 min 72,6 klux 0,00 min 17,4 C 21,3 C
22.06.2008 14:17 25,1 C 27,1 C 64 % 1015 hPa 0,0 l/m 34,4 km/h (5 Bft) SW45 230 15 min 113 klux 0,00 min 17,8 C 21,6 C
22.06.2008 14:32 25,2 C 27,5 C 60 % 1015 hPa 0,0 l/m 37,0 km/h (5 Bft) SW67.5 225 15 min 95,1 klux 0,00 min 16,9 C 21,6 C
22.06.2008 14:47 24,9 C 27,8 C 61 % 1014 hPa 0,0 l/m 49,5 km/h (6 Bft) W-SW67.5 250 15 min 95,4 klux 0,00 min 16,8 C 20,6 C
22.06.2008 15:02 25,1 C 28,6 C 59 % 1014 hPa 0,0 l/m 38,3 km/h (5 Bft) SW67.5 215 15 min 94,4 klux 0,00 min 16,5 C 21,4 C
22.06.2008 15:17 25,5 C 29,2 C 60 % 1014 hPa 0,0 l/m 37,4 km/h (5 Bft) SW67.5 215 15 min 91,0 klux 0,00 min 17,2 C 22,0 C
22.06.2008 15:32 25,6 C 29,6 C 59 % 1014 hPa 0,0 l/m 38,3 km/h (5 Bft) SW45 235 15 min 90,9 klux 0,00 min 17,0 C 22,1 C
22.06.2008 15:47 25,7 C 30,0 C 58 % 1014 hPa 0,0 l/m 41,6 km/h (6 Bft) S45 190 15 min 85,8 klux 0,00 min 16,8 C 22,1 C
22.06.2008 16:02 25,9 C 29,9 C 56 % 1014 hPa 0,0 l/m 40,5 km/h (6 Bft) SW45 215 15 min 84,8 klux 0,00 min 16,4 C 22,4 C
22.06.2008 16:17 25,9 C 30,3 C 55 % 1014 hPa 0,0 l/m 46,8 km/h (6 Bft) W-SW45 240 15 min 84,0 klux 0,00 min 16,2 C 22,2 C
22.06.2008 16:32 25,5 C 28,3 C 56 % 1014 hPa 0,0 l/m 35,5 km/h (5 Bft) W-SW67.5 245 15 min 84,5 klux 0,00 min 16,1 C 22,1 C
22.06.2008 16:47 25,9 C 29,8 C 56 % 1013 hPa 0,0 l/m 37,7 km/h (5 Bft) W-SW67.5 240 15 min 81,2 klux 0,00 min 16,4 C 22,6 C
22.06.2008 17:02 26,0 C 29,6 C 55 % 1013 hPa 0,0 l/m 59,2 km/h (7 Bft) W-SW22.5 250 15 min 83,9 klux 0,00 min 16,2 C 22,0 C
22.06.2008 17:17 25,9 C 28,8 C 56 % 1014 hPa 0,0 l/m 40,7 km/h (6 Bft) SW45 220 15 min 87,1 klux 0,00 min 16,4 C 22,4 C
22.06.2008 17:32 25,1 C 26,5 C 54 % 1013 hPa 0,0 l/m 35,4 km/h (5 Bft) SW45 230 0 min 56,8 klux 0,00 min 15,1 C 21,5 C
22.06.2008 17:47 24,1 C 24,8 C 55 % 1013 hPa 0,0 l/m 37,3 km/h (5 Bft) SW67.5 230 0 min 14,7 klux 0,00 min 14,5 C 20,0 C
22.06.2008 18:02 23,3 C 23,8 C 59 % 1014 hPa 0,0 l/m 32,3 km/h (5 Bft) W-SW22.5 250 0 min 5,13 klux 0,00 min 14,8 C 19,2 C
22.06.2008 18:17 21,4 C 20,6 C 70 % 1014 hPa 1,2 l/m 31,0 km/h (5 Bft) W22.5 270 0 min 1,84 klux 15,00 min 15,7 C 16,6 C
22.06.2008 18:32 19,6 C 18,2 C 69 % 1014 hPa 0,6 l/m 38,7 km/h (5 Bft) W45 265 0 min 797 lux 15,00 min 13,8 C 13,2 C
22.06.2008 18:47 16,4 C 16,3 C 78 % 1014 hPa 0,0 l/m 58,9 km/h (7 Bft) W45 275 0 min 2,25 klux 0,00 min 12,6 C 7,0 C
22.06.2008 19:01 15,8 C 15,6 C 81 % 1014 hPa 0,0 l/m 11,3 km/h (2 Bft) W22.5 270 0 min 7,04 klux 0,00 min 12,5 C 13,5 C
22.06.2008 19:16 16,3 C 16,2 C 83 % 1014 hPa 0,0 l/m 8,2 km/h (2 Bft) W-SW 250 0 min 38,6 klux 0,00 min 13,4 C 15,4 C
22.06.2008 19:31 16,8 C 16,6 C 84 % 1014 hPa 0,0 l/m 4,3 km/h (1 Bft) S-SW 195 0 min 14,3 klux 0,00 min 14,1 C 16,8 C
22.06.2008 19:46 17,6 C 17,1 C 87 % 1014 hPa 0,0 l/m 12,0 km/h (2 Bft) W-SW22.5 255 0 min 15,1 klux 0,00 min 15,4 C 15,3 C
22.06.2008 20:01 18,3 C 18,1 C 88 % 1014 hPa 0,0 l/m 20,6 km/h (4 Bft) S-SW45 205 0 min 24,3 klux 0,00 min 16,3 C 13,9 C
22.06.2008 20:16 18,6 C 19,8 C 88 % 1014 hPa 0,0 l/m 27,6 km/h (4 Bft) S-SW45 210 0 min 19,2 klux 0,00 min 16,6 C 13,1 C
22.06.2008 20:31 18,8 C 20,2 C 87 % 1013 hPa 0,0 l/m 26,5 km/h (4 Bft) SW45 215 0 min 17,8 klux 0,00 min 16,6 C 13,5 C
22.06.2008 20:47 18,6 C 19,1 C 87 % 1013 hPa 0,0 l/m 30,1 km/h (5 Bft) SW45 220 0 min 8,63 klux 0,00 min 16,4 C 12,7 C
22.06.2008 21:02 18,4 C 18,5 C 88 % 1013 hPa 0,0 l/m 24,1 km/h (4 Bft) SW45 230 0 min 2,18 klux 0,00 min 16,4 C 13,4 C
22.06.2008 21:16 18,2 C 18,1 C 89 % 1014 hPa 0,6 l/m 23,2 km/h (4 Bft) W-SW45 245 0 min 757 lux 14,00 min 16,4 C 13,3 C
22.06.2008 21:31 18,0 C 17,9 C 89 % 1013 hPa 0,0 l/m 15,3 km/h (3 Bft) S22.5 185 0 min 2,92 klux 0,00 min 16,2 C 14,7 C
22.06.2008 21:46 18,1 C 17,8 C 90 % 1014 hPa 0,0 l/m 18,2 km/h (3 Bft) S-SW22.5 200 0 min 1,03 klux 0,00 min 16,4 C 14,1 C
22.06.2008 22:01 18,0 C 17,7 C 91 % 1014 hPa 0,0 l/m 22,1 km/h (4 Bft) SW45 235 0 min 150 lux 0,00 min 16,5 C 13,2 C
22.06.2008 22:16 17,9 C 17,7 C 91 % 1014 hPa 0,0 l/m 22,0 km/h (4 Bft) S-SW45 205 0 min 58 lux 0,00 min 16,4 C 13,1 C
22.06.2008 22:32 17,9 C 17,7 C 92 % 1014 hPa 0,0 l/m 12,3 km/h (3 Bft) W-SW22.5 255 0 min 18 lux 0,00 min 16,6 C 15,5 C
22.06.2008 22:47 17,9 C 17,7 C 93 % 1014 hPa 0,0 l/m 19,7 km/h (3 Bft) SW45 225 0 min 1 lux 0,00 min 16,8 C 13,6 C
22.06.2008 23:01 17,9 C 17,8 C 93 % 1014 hPa 0,0 l/m 16,3 km/h (3 Bft) SW45 225 0 min 0 lux 0,00 min 16,8 C 14,4 C
22.06.2008 23:16 18,0 C 17,8 C 94 % 1014 hPa 1,0 l/m 15,8 km/h (3 Bft) SW45 225 0 min 0 lux 15,00 min 17,0 C 14,6 C
22.06.2008 23:31 18,0 C 17,7 C 93 % 1014 hPa 0,0 l/m 20,4 km/h (4 Bft) W45 270 0 min 0 lux 0,00 min 16,8 C 13,5 C
22.06.2008 23:46 17,3 C 16,8 C 90 % 1015 hPa 0,0 l/m 20,6 km/h (4 Bft) W45 265 0 min 0 lux 0,00 min 15,6 C 12,6 C
_ Min-Zeit 02:16 01:31 17:32 16:47 - 00:01 - - - - - 10:46 10:46
Minimum _ 12,2 C 11,0 C 54 % 1013 hPa - 0,0 km/h (0 Bft) - - - - - 6,6 C 5,9 C
_ Max-Zeit 10:46 16:17 23:16 00:01 18:17 17:02 - - 09:17 14:17 18:17 10:31 10:46
Maximum _ 26,3 C 30,3 C 94 % 1018 hPa 1,2 l/m 59,2 km/h
W-SW (7 Bft)
- - 15 min 113 klux 15,00 min 18,8 C 23,3 C
Durchschnitt _ 19,9 C 19,7 C 75 % 1015 hPa #3,4 l/m 21,8 km/h (4 Bft) SW - #5:59 h 31,9 klux #59 min. 15,1 C 16,7 C